CW4874 Weather Reports


time (UTC)temp
C
wind
direction
speed
KPH
gust
KPH
rain 1hr
cm
rain 24hr
cm
rain mn
cm
humidity
%
barometer
mb
20260503193406 18 181 12.9 40.2 0.00 0.00 0.00 39 1009.0
20260503192901 18 192 12.9 40.2 0.00 0.00 0.00 40 1009.2
20260503192355 17 228 11.3 30.6 0.00 0.00 0.00 40 1009.3
20260503191848 17 242 11.3 27.4 0.00 0.00 0.00 41 1009.3
20260503191342 17 229 11.3 37.0 0.00 0.00 0.00 41 1009.3
20260503190836 17 182 11.3 37.0 0.00 0.00 0.00 41 1009.3
20260503190326 17 194 12.9 45.1 0.00 0.00 0.00 40 1009.4
20260503185825 18 182 11.3 45.1 0.00 0.00 0.00 39 1009.5
20260503185318 18 205 11.3 25.7 0.00 0.00 0.00 40 1009.5
20260503185031 18 228 12.9 29.0 0.00 0.00 0.00 39 1009.5
20260503184306 18 196 11.3 29.0 0.00 0.00 0.00 40 1009.5
20260503183756 18 237 11.3 29.0 0.00 0.00 0.00 39 1009.8
20260503183254 18 183 12.9 33.8 0.00 0.00 0.00 38 1009.7
20260503182749 17 184 12.9 33.8 0.00 0.00 0.00 38 1009.9
20260503182242 17 254 11.3 30.6 0.00 0.00 0.00 40 1009.9
20260503181743 17 234 12.9 37.0 0.00 0.00 0.00 38 1009.9
20260503181242 18 240 12.9 37.0 0.00 0.00 0.00 38 1010.0
20260503180744 18 247 12.9 35.4 0.00 0.00 0.00 38 1010.0
20260503180242 18 273 12.9 35.4 0.00 0.00 0.00 36 1010.1
20260503175742 18 239 11.3 27.4 0.00 0.00 0.00 41 1009.9
20260503175242 17 293 11.3 41.8 0.00 0.00 0.00 40 1010.2
20260503174742 17 194 12.9 41.8 0.00 0.00 0.00 40 1010.2
20260503174242 17 198 11.3 30.6 0.00 0.00 0.00 40 1010.4
20260503173742 16 184 11.3 27.4 0.00 0.00 0.00 44 1010.5
20260503173242 16 225 11.3 29.0 0.00 0.00 0.00 45 1010.6
20260503172743 16 232 9.7 29.0 0.00 0.00 0.00 46 1010.6
20260503172242 15 214 8.0 25.7 0.00 0.00 0.00 47 1010.7
20260503171744 15 244 11.3 41.8 0.00 0.00 0.00 46 1010.8
20260503171245 15 216 12.9 41.8 0.00 0.00 0.00 44 1010.9
20260503170745 15 203 11.3 25.7 0.00 0.00 0.00 44 1011.0
20260503170244 15 184 11.3 27.4 0.00 0.00 0.00 47 1011.0
20260503160210 13 171 11.3 29.0 0.00 0.00 0.00 46 1011.8
20260503150918 15 256 9.7 29.0 0.00 0.00 0.00 46 1012.1
20260503150140 15 241 11.3 30.6 0.00 0.00 0.00 44 1012.1
20260503131235 10 299 6.4 16.1 0.00 0.00 0.00 56 1012.6
20260503130508 9 216 6.4 19.3 0.00 0.00 0.00 57 1012.7
20260503110348 4 207 4.8 9.7 0.00 0.00 0.00 64 1012.6
20260503090228 2 240 0.0 4.8 0.00 0.00 0.00 68 1013.3
20260503081210 2 274 0.0 3.2 0.00 0.00 0.00 70 1013.5
20260503080658 2 274 0.0 3.2 0.00 0.00 0.00 69 1013.6
20260503080418 2 240 0.0 1.6 0.00 0.00 0.00 69 1013.5
20260503072652 2 242 0.0 3.2 0.00 0.00 0.00 70 1013.7
20260503072152 2 242 1.6 3.2 0.00 0.00 0.00 70 1013.7
20260503071647 2 240 0.0 3.2 0.00 0.00 0.00 70 1013.7
20260503071134 2 248 0.0 3.2 0.00 0.00 0.00 70 1013.7
20260503070624 2 240 0.0 3.2 0.00 0.00 0.00 71 1013.7
20260503070558 2 238 0.0 3.2 0.00 0.00 0.00 71 1013.7
20260503060213 2 296 1.6 6.4 0.00 0.00 0.00 69 1014.2
20260503054936 2 274 0.0 3.2 0.00 0.00 0.00 69 1014.2
20260503054430 2 274 0.0 3.2 0.00 0.00 0.00 69 1014.2
20260503053919 2 243 0.0 4.8 0.00 0.00 0.00 70 1014.3
20260503053418 2 243 1.6 8.0 0.00 0.00 0.00 69 1014.3
20260503052911 2 257 0.0 8.0 0.00 0.00 0.00 70 1014.3
20260503052406 2 229 0.0 3.2 0.00 0.00 0.00 70 1014.4
20260503052343 2 254 0.0 3.2 0.00 0.00 0.00 71 1014.4
20260503051615 2 263 1.6 3.2 0.00 0.00 0.00 71 1014.4
20260503050848 2 244 0.0 3.2 0.00 0.00 0.00 71 1014.4
20260503050337 2 266 0.0 4.8 0.00 0.00 0.00 72 1014.4
20260503045836 2 266 0.0 4.8 0.00 0.00 0.00 72 1014.5
20260503045330 2 259 0.0 3.2 0.00 0.00 0.00 72 1014.5
20260503045047 2 259 0.0 3.2 0.00 0.00 0.00 73 1014.5
20260503044537 2 254 0.0 3.2 0.00 0.00 0.00 73 1014.5
20260503043807 2 242 0.0 4.8 0.00 0.00 0.00 73 1014.5
20260503043753 2 239 0.0 4.8 0.00 0.00 0.00 73 1014.5
20260503042755 2 257 0.0 3.2 0.00 0.00 0.00 72 1014.5
20260503042507 2 257 0.0 3.2 0.00 0.00 0.00 72 1014.5
20260503041738 2 254 0.0 3.2 0.00 0.00 0.00 72 1014.5
20260503041233 2 242 0.0 3.2 0.00 0.00 0.00 72 1014.6
20260503040942 2 222 0.0 3.2 0.00 0.00 0.00 72 1014.6
20260503040220 2 222 0.0 3.2 0.00 0.00 0.00 72 1014.7
20260503035713 2 219 0.0 1.6 0.00 0.00 0.00 72 1014.7
20260503035203 2 219 0.0 3.2 0.00 0.00 0.00 72 1014.7
20260503034701 2 219 0.0 3.2 0.00 0.00 0.00 73 1014.7
20260503034155 2 219 0.0 3.2 0.00 0.00 0.00 73 1014.7
20260503033649 2 219 0.0 0.0 0.00 0.00 0.00 73 1014.7
20260503033142 2 219 0.0 0.0 0.00 0.00 0.00 73 1014.8
20260503032637 2 219 0.0 0.0 0.00 0.00 0.00 73 1014.8
20260503032131 2 219 0.0 0.0 0.00 0.00 0.00 72 1014.8
20260503031620 3 219 0.0 0.0 0.00 0.00 0.00 71 1014.8
20260503031119 3 219 0.0 1.6 0.00 0.00 0.00 70 1014.8
20260503030612 3 219 0.0 1.6 0.00 0.00 0.00 70 1014.9
20260503030107 3 219 0.0 0.0 0.00 0.00 0.00 70 1014.8
20260503025601 3 219 0.0 1.6 0.00 0.00 0.00 70 1014.9
20260503025310 3 219 0.0 1.6 0.00 0.00 0.00 70 1014.9
20260503024548 3 219 0.0 1.6 0.00 0.00 0.00 70 1015.0
20260503024043 3 219 0.0 0.0 0.00 0.00 0.00 69 1015.0
20260503023536 3 219 0.0 0.0 0.00 0.00 0.00 69 1014.9
20260503023031 3 219 0.0 0.0 0.00 0.00 0.00 68 1015.0
20260503022524 3 219 0.0 0.0 0.00 0.00 0.00 68 1015.0
20260503022018 3 219 0.0 0.0 0.00 0.00 0.00 67 1015.0
20260503021509 3 219 0.0 0.0 0.00 0.00 0.00 67 1015.0
20260503021007 3 219 0.0 0.0 0.00 0.00 0.00 67 1015.0
20260503020500 4 219 0.0 0.0 0.00 0.00 0.00 66 1014.9
20260503015955 4 219 0.0 0.0 0.00 0.00 0.00 65 1014.9
20260503015448 4 219 0.0 0.0 0.00 0.00 0.00 64 1014.9
20260503014937 4 219 0.0 0.0 0.00 0.00 0.00 63 1014.8
20260503014925 4 219 0.0 0.0 0.00 0.00 0.00 63 1014.8
20260503014148 5 219 0.0 0.0 0.00 0.00 0.00 62 1014.8
20260503013424 5 219 0.0 0.0 0.00 0.00 0.00 62 1014.8
20260503012919 5 219 0.0 0.0 0.00 0.00 0.00 62 1014.7
20260503012409 5 219 0.0 0.0 0.00 0.00 0.00 62 1014.8
20260503011906 5 219 0.0 0.0 0.00 0.00 0.00 62 1014.7
20260503011401 5 219 0.0 0.0 0.00 0.00 0.00 62 1014.7
20260503010854 6 219 0.0 1.6 0.00 0.00 0.00 58 1014.6
20260503010349 6 219 0.0 3.2 0.00 0.00 0.00 58 1014.6
20260503005842 6 219 0.0 3.2 0.00 0.00 0.00 58 1014.6
20260503005337 6 200 0.0 0.0 0.00 0.00 0.00 57 1014.6
20260503004826 6 200 0.0 0.0 0.00 0.00 0.00 57 1014.5
20260503004324 7 200 0.0 0.0 0.00 0.00 0.00 57 1014.6
20260503003819 7 200 0.0 3.2 0.00 0.00 0.00 56 1014.6
20260503003312 7 200 1.6 3.2 0.00 0.00 0.00 54 1014.5
20260503002807 7 200 1.6 3.2 0.00 0.00 0.00 54 1014.6
20260503002256 7 200 0.0 6.4 0.00 0.00 0.00 54 1014.6
20260503001755 8 200 0.0 6.4 0.00 0.00 0.00 53 1014.5
20260503001248 8 249 0.0 4.8 0.00 0.00 0.00 53 1014.5
20260503000958 8 249 1.6 4.8 0.00 0.00 0.00 52 1014.5
20260503000457 8 224 3.2 6.4 0.00 0.00 0.00 52 1014.5
20260502235952 8 284 3.2 8.0 0.00 0.00 0.00 51 1014.5
20260502235224 8 267 4.8 9.7 0.00 0.00 0.00 50 1014.5
20260502234714 8 287 4.8 12.9 0.00 0.00 0.00 48 1014.5
20260502234212 8 280 4.8 12.9 0.00 0.00 0.00 48 1014.5
20260502233707 8 248 3.2 11.3 0.00 0.00 0.00 49 1014.5
20260502233200 8 271 3.2 8.0 0.00 0.00 0.00 49 1014.6
20260502232654 8 279 4.8 9.7 0.00 0.00 0.00 48 1014.6
20260502232145 9 299 4.8 16.1 0.00 0.00 0.00 47 1014.7
20260502231642 9 294 4.8 16.1 0.00 0.00 0.00 47 1014.6
20260502231132 8 288 6.4 12.9 0.00 0.00 0.00 47 1014.6
20260502230630 8 242 6.4 16.1 0.00 0.00 0.00 47 1014.6
20260502230353 8 192 8.0 16.1 0.00 0.00 0.00 47 1014.7
20260502225619 8 267 4.8 14.5 0.00 0.00 0.00 47 1014.7
20260502225113 8 259 4.8 11.3 0.00 0.00 0.00 48 1014.7
20260502224819 8 300 4.8 11.3 0.00 0.00 0.00 47 1014.7
20260502224100 8 244 4.8 16.1 0.00 0.00 0.00 47 1014.7
20260502223554 8 291 4.8 16.1 0.00 0.00 0.00 47 1014.8
20260502223316 8 319 3.2 8.0 0.00 0.00 0.00 47 1014.7
20260502222542 8 288 4.8 12.9 0.00 0.00 0.00 46 1014.7
20260502222032 8 334 6.4 12.9 0.00 0.00 0.00 46 1014.7
20260502221753 8 281 6.4 12.9 0.00 0.00 0.00 46 1014.7
20260502221024 8 295 4.8 12.9 0.00 0.00 0.00 47 1014.8
20260502220518 9 292 4.8 12.9 0.00 0.00 0.00 45 1014.7
20260502220233 9 278 4.8 9.7 0.00 0.00 0.00 46 1014.6
20260502215507 9 285 6.4 14.5 0.00 0.00 0.00 47 1014.7
20260502215001 8 270 6.4 14.5 0.00 0.00 0.00 47 1014.6
20260502214710 8 299 4.8 11.3 0.00 0.00 0.00 47 1014.7
20260502213948 8 244 4.8 11.3 0.00 0.00 0.00 47 1014.8
20260502213702 8 257 6.4 14.5 0.00 0.00 0.00 46 1014.7
20260502212937 8 273 8.0 17.7 0.00 0.00 0.00 46 1014.7
20260502212430 8 292 6.4 17.7 0.00 0.00 0.00 45 1014.7
20260502211920 9 269 6.4 12.9 0.00 0.00 0.00 47 1014.7
20260502211419 9 215 6.4 16.1 0.00 0.00 0.00 44 1014.7
20260502210913 9 304 6.4 16.1 0.00 0.00 0.00 44 1014.8
20260502210406 9 263 6.4 12.9 0.00 0.00 0.00 45 1014.9
20260502205900 8 279 9.7 22.5 0.00 0.00 0.00 46 1014.9
20260502205355 8 289 8.0 22.5 0.00 0.00 0.00 45 1015.0
20260502204848 8 180 6.4 17.7 0.00 0.00 0.00 47 1015.0
20260502204559 8 296 8.0 17.7 0.00 0.00 0.00 45 1015.0
20260502203836 8 277 8.0 14.5 0.00 0.00 0.00 46 1015.0
20260502203331 8 271 8.0 17.7 0.00 0.00 0.00 45 1015.1
20260502202824 8 288 8.0 17.7 0.00 0.00 0.00 45 1015.1
20260502202541 8 229 6.4 16.1 0.00 0.00 0.00 45 1015.1
20260502201808 8 230 8.0 16.1 0.00 0.00 0.00 45 1015.1
20260502201306 8 275 6.4 22.5 0.00 0.00 0.00 44 1015.2
20260502200800 8 262 4.8 22.5 0.00 0.00 0.00 45 1015.3
20260502200255 8 275 6.4 14.5 0.00 0.00 0.00 46 1015.3
20260502195748 8 251 4.8 12.9 0.00 0.00 0.00 47 1015.3
20260502195238 8 281 4.8 16.1 0.00 0.00 0.00 45 1015.3
20260502194737 8 300 6.4 16.1 0.00 0.00 0.00 45 1015.4
20260502194230 8 242 8.0 16.1 0.00 0.00 0.00 46 1015.4
20260502193724 8 267 6.4 16.1 0.00 0.00 0.00 45 1015.5
20260502193713 8 284 6.4 12.9 0.00 0.00 0.00 44 1015.5